RH
54 48 48 53 50 46 44 53 58 58 66 57 57 48 42 46 55 52 53 57 62 64 65 65 66 69 74 77 77 73 64 63 67 64 50 31 22 18 18 18 20 23 25
52 48 54 65 66 66 72 76 69 74 73 60 65 58 50 39 42 47 53 59 64 68 70 73 72 73 77 80 82 81 77 74 72 72 73 68 52 28 27 41 59 63 57
68 70 72 82 79 81 83 86 89 69 62 57 60 55 53 52 50 58 60 61 66 71 74 76 80 80 84 82 81 84 85 83 80 80 78 77 72 56 66 74 74 70 67
72 78 76 84 90 89 93 86 75 69 68 61 55 53 56 58 57 58 64 66 72 76 78 76 74 77 82 85 88 94 92 88 86 87 88 84 80 76 73 78 78 76 74
54 59 69 73 72 71 65 68 63 64 58 59 58 60 59 59 61 65 70 76 81 82 83 79 73 75 80 80 81 82 89 98 100 100 97 85 86 85 82 80 76 74 75
72 69 66 68 69 72 71 66 66 68 61 66 73 68 64 62 62 63 72 81 86 94 93 89 78 76 81 80 81 82 85 93 100 99 98 100 95 90 93 85 83 73 75
85 83 74 69 77 79 69 69 70 74 76 73 72 69 67 66 66 70 82 86 90 90 93 91 84 82 80 85 80 76 85 80 80 90 94 95 92 92 99 93 88 86 82
86 85 84 83 91 95 91 84 78 82 82 79 77 80 77 70 70 77 88 90 92 88 89 90 85 86 85 88 82 82 82 74 76 85 86 89 93 92 95 99 85 84 80
90 89 94 85 94 100 98 89 86 87 85 84 81 86 88 84 82 81 88 95 92 88 87 85 88 86 88 93 91 86 78 76 75 80 82 84 86 96 97 100 96 96 85
89 93 93 86 88 91 85 85 83 90 92 85 86 90 91 96 92 88 93 94 91 87 87 89 93 93 92 89 89 89 87 82 75 78 77 76 87 91 97 97 98 100 90
87 85 80 89 86 84 80 76 76 76 74 74 72 78 85 87 100 99 96 90 86 89 94 96 94 93 94 88 83 78 76 76 78 82 77 70 66 75 87 92 99 100 97
74 73 73 74 86 88 82 73 74 71 70 67 70 70 80 76 96 99 100 99 96 92 93 100 100 94 92 91 86 86 82 79 84 80 66 82 92 80 79 92 99 100 100
75 79 80 83 76 72 63 62 62 69 55 45 43 71 77 97 99 94 99 92 87 95 93 88 91 85 86 88 86 88 80 78 83 80 95 98 80 82 99 98 99 99 99
58 57 61 75 76 66 74 72 65 54 53 46 48 57 82 87 89 95 93 97 96 98 94 98 86 89 88 88 86 76 81 84 88 80 71 78 76 82 84 97 100 100 100
60 64 65 75 54 55 56 56 63 60 53 54 55 75 88 88 87 86 91 90 99 99 98 98 89 90 90 93 90 84 81 85 84 80 82 76 74 76 78 82 82 86 79
81 81 79 78 72 68 46 39 37 38 35 41 48 81 92 93 93 89 91 87 99 100 100 99 98 96 97 99 97 86 88 89 85 80 83 78 77 80 81 80 79 79 80
67 62 52 42 38 35 35 34 34 34 36 39 54 84 98 87 100 98 98 89 91 94 100 100 99 98 99 98 100 79 87 85 85 85 78 80 84 86 88 84 87 86 84
41 40 40 43 43 44 45 46 49 48 47 47 64 79 95 97 82 88 95 100 95 100 99 100 100 99 99 99 100 98 94 88 91 98 86 83 86 88 88 87 86 84 85
43 44 47 50 53 54 55 54 57 63 66 79 81 97 92 97 96 95 99 99 99 94 86 74 91 98 100 100 100 100 99 96 91 91 86 86 87 88 86 80 77 72 49
51 52 50 49 51 52 54 58 59 65 74 95 99 98 96 96 98 99 99 99 99 84 66 72 85 99 100 100 100 99 94 90 87 84 81 77 72 65 52 35 22 12 10
54 53 53 54 55 56 54 57 63 63 72 90 99 98 98 99 98 98 98 99 83 68 74 78 86 88 98 99 95 90 91 86 77 68 49 27 17 14 12 10 9 11 14
56 58 60 61 61 60 62 64 66 70 76 80 88 99 99 98 99 100 96 78 74 74 74 83 81 80 81 83 83 82 80 67 51 21 17 12 10 10 12 14 19 25 27
61 62 62 61 62 62 62 66 72 75 79 82 84 84 87 86 80 77 78 81 84 83 81 79 77 76 73 66 55 54 51 38 15 12 11 10 13 18 22 26 28 30 32
66 66 66 66 66 66 63 68 77 81 84 91 91 91 88 90 89 92 92 94 92 86 84 78 73 59 35 34 22 19 15 12 10 9 10 15 24 31 32 32 32 34 35
69 69 71 71 71 71 70 75 86 92 100 100 100 100 100 98 97 93 90 89 86 74 50 23 18 11 13 15 14 11 9 8 8 12 23 27 26 32 35 34 34 35 37
73 75 76 76 78 80 89 88 96 100 100 99 100 100 100 99 97 89 86 53 18 12 11 10 10 8 8 9 9 7 8 9 15 23 25 29 31 33 33 35 38 40 40
Wind_Speed
10 11 9 6 5 6 8 8 6 5 2 5 4 4 4 5 6 6 5 4 5 7 8 7 8 8 8 8 9 9 8 8 7 7 7 7 7 7 8 8 9 10 11
9 12 10 7 6 6 5 5 4 4 5 5 5 4 3 5 6 6 5 5 5 6 7 8 9 9 9 8 7 7 7 6 6 7 8 8 7 7 8 8 9 9 9
12 10 8 9 9 8 7 7 8 10 10 9 8 7 6 4 5 4 5 5 5 6 6 7 8 10 11 10 10 8 6 5 4 4 5 6 6 5 6 8 9 9 8
17 17 17 14 13 13 13 15 14 12 12 12 10 9 8 6 6 7 7 6 7 7 7 8 7 8 9 9 10 11 12 9 8 5 4 4 4 3 4 6 7 8 8
19 20 20 21 19 18 17 16 15 13 12 11 10 9 9 8 8 8 8 8 10 10 8 9 9 9 9 9 9 11 12 13 11 10 9 4 4 4 2 3 5 6 7
15 17 19 20 18 17 16 15 14 13 12 11 10 11 11 10 11 10 10 10 10 9 10 12 12 11 11 10 11 11 11 11 12 12 12 10 8 8 6 4 4 4 6
14 13 14 17 16 15 13 13 14 14 13 12 13 13 13 13 12 10 10 10 9 9 12 15 15 14 12 12 12 11 11 11 12 14 13 14 12 13 11 6 4 4 6
18 17 12 15 15 14 13 12 12 13 13 14 14 12 12 11 11 10 10 10 11 13 15 16 16 15 13 15 14 12 13 15 16 16 16 14 16 17 15 12 8 6 7
20 18 16 12 15 17 15 12 11 14 16 15 16 14 7 7 4 7 12 14 14 14 15 17 18 16 17 16 14 13 14 14 15 16 17 18 18 18 20 15 13 10 8
21 20 21 18 19 18 16 16 14 16 20 20 18 21 23 20 9 6 12 16 16 17 17 17 17 17 15 13 14 15 14 15 16 16 17 19 18 17 20 20 17 15 11
12 11 9 16 19 17 12 13 15 16 18 16 15 20 27 25 21 20 15 17 19 19 17 18 16 13 14 15 15 16 15 14 15 14 15 18 18 19 15 19 22 20 14
9 13 9 10 10 12 11 13 16 18 21 19 23 23 27 26 23 23 22 21 17 18 19 20 17 14 15 15 16 15 15 12 12 11 11 6 6 9 10 12 19 21 19
18 15 14 15 14 16 15 13 15 18 26 23 28 27 29 28 26 23 20 19 18 19 18 20 17 16 16 16 18 16 13 11 10 6 7 8 7 3 2 9 11 11 11
18 26 23 22 24 31 32 31 20 21 31 30 31 28 28 28 27 26 25 21 21 19 18 19 21 20 19 19 16 14 12 9 10 11 11 9 7 7 9 9 10 11 12
21 23 21 23 21 21 24 28 28 29 30 30 30 28 29 28 27 26 24 24 26 17 19 21 21 23 19 18 15 15 13 11 11 11 10 8 8 10 12 13 16 18 19
26 25 26 28 28 29 27 27 28 28 27 27 25 24 26 27 27 24 23 24 24 27 19 20 22 23 19 17 19 17 16 14 12 11 11 11 12 12 12 14 16 18 19
24 23 23 23 22 22 22 22 23 22 22 21 21 22 23 25 25 21 19 24 21 22 24 23 23 21 19 17 19 14 12 11 11 11 10 10 11 12 12 13 14 15 16
17 17 18 18 19 19 20 20 20 21 20 19 17 18 19 24 20 21 18 21 21 21 23 24 22 20 19 17 15 12 11 11 10 11 11 10 10 11 12 13 13 14 14
19 18 18 17 18 18 19 20 20 20 19 18 17 16 19 20 21 20 22 21 21 23 22 21 20 20 18 16 14 13 11 9 9 8 8 8 9 10 11 12 12 13 12
15 14 14 15 17 17 17 18 19 20 19 17 17 17 20 20 20 21 19 21 22 21 20 19 18 17 17 16 15 13 12 10 10 9 8 8 9 11 12 11 12 13 13
12 12 12 13 14 15 16 18 18 18 20 19 19 20 21 22 22 24 24 23 20 20 19 18 18 17 16 16 15 13 13 11 10 9 8 9 9 10 10 9 9 8 8
11 11 11 12 14 15 17 19 19 19 19 19 20 20 21 22 23 23 23 21 19 18 17 17 15 14 14 14 14 13 14 12 9 8 8 7 7 8 7 6 5 5 6
12 13 14 15 15 17 20 20 21 19 19 19 19 18 19 19 20 19 19 19 19 17 16 14 13 13 14 13 12 13 13 12 10 9 7 7 7 6 6 5 5 6 7
14 14 16 17 17 17 18 20 20 19 18 19 18 18 18 16 15 15 14 15 16 16 16 15 14 12 11 12 11 11 12 12 9 9 8 7 7 6 7 7 7 7 8
15 17 17 18 19 17 16 18 16 15 15 15 15 15 14 14 16 15 14 14 15 16 15 14 14 13 11 12 11 10 10 11 9 8 8 7 7 7 8 9 10 9 7
16 17 18 18 17 16 14 16 13 11 12 13 14 14 15 15 15 14 14 14 15 14 13 12 14 10 11 11 11 9 8 8 7 7 9 7 5 5 5 7 7 6 7
Wind_Direction
203 199 202 193 200 180 169 182 192 182 127 206 202 218 230 233 247 270 296 327 347 350 355 358 355 353 357 7 17 17 18 21 29 37 41 42 44 45 46 46 42 39 31
200 193 194 194 202 193 178 186 201 244 242 240 232 213 216 229 234 266 288 311 326 340 342 341 340 337 337 339 348 354 5 16 31 36 36 37 39 51 55 52 44 38 32
192 202 215 218 223 217 213 218 230 225 230 230 227 240 233 227 227 249 279 294 317 320 320 327 326 324 319 319 317 323 327 340 347 15 31 35 36 39 53 37 31 28 34
200 200 213 219 229 237 232 237 237 242 245 242 238 232 236 248 261 266 264 279 295 303 309 312 314 319 311 301 299 299 302 304 306 312 327 1 23 19 28 27 19 19 22
211 213 217 219 224 231 231 234 238 235 232 236 239 235 244 251 249 254 262 268 281 287 299 308 304 309 298 300 298 295 281 284 286 293 306 338 330 314 315 356 10 24 14
229 223 220 221 228 230 232 237 234 235 236 238 242 247 247 258 267 271 269 267 265 273 283 299 296 305 287 292 304 291 280 275 279 281 284 281 287 288 278 289 344 1 352
236 246 234 223 221 226 234 240 239 237 237 240 249 261 268 266 265 266 266 262 256 256 251 271 284 296 288 285 284 291 280 277 276 283 280 282 277 278 269 262 279 315 320
239 240 243 227 223 229 233 237 239 245 250 247 251 262 273 272 263 251 242 245 235 253 257 273 286 291 286 285 293 289 292 289 280 271 270 277 272 271 270 254 260 279 288
231 225 229 227 224 231 242 243 252 261 268 264 261 251 249 246 238 239 235 244 249 246 265 271 282 285 286 284 286 280 283 278 279 274 271 274 272 257 257 251 246 251 248
237 230 231 231 224 224 238 268 267 266 267 272 275 270 260 256 252 231 219 227 238 257 266 274 277 278 273 276 285 285 283 277 281 279 276 269 267 267 247 248 251 231 224
238 226 242 238 241 243 239 249 262 271 272 266 269 280 281 263 257 255 245 243 257 261 270 278 282 279 280 284 288 287 287 287 282 278 282 284 283 267 256 243 234 219 213
248 243 243 234 240 244 242 268 276 275 281 282 286 281 269 273 266 256 251 257 259 264 270 271 273 282 285 287 292 285 288 286 280 283 297 277 266 314 252 227 230 201 197
237 257 256 248 242 255 249 261 266 279 278 277 272 272 270 266 261 264 265 264 260 257 261 271 269 281 281 288 295 284 285 282 267 262 197 217 298 339 120 206 173 175 203
262 262 267 261 264 268 267 265 264 259 260 257 263 265 267 264 263 264 264 259 256 245 252 265 276 278 279 286 288 287 283 270 255 247 251 246 264 262 254 249 249 245 259
240 238 239 239 241 257 263 266 264 261 263 263 261 256 258 262 263 264 262 258 254 239 248 249 266 277 277 278 277 284 276 268 247 240 247 242 255 252 246 250 252 263 273
247 251 250 252 258 262 263 263 266 267 266 264 260 256 255 256 256 254 252 265 250 248 246 256 270 268 267 265 271 276 269 262 247 243 240 234 239 251 252 255 260 265 272
251 250 253 256 259 264 265 267 267 268 270 267 261 254 253 256 245 248 252 253 250 253 260 259 258 255 260 258 272 273 249 242 242 246 246 239 238 249 252 263 266 266 268
252 255 257 260 263 263 264 268 271 272 271 268 259 257 250 249 263 246 254 237 257 253 257 258 251 247 248 252 257 258 238 235 244 253 258 241 241 243 252 259 266 271 273
254 257 261 267 271 272 274 273 271 271 269 263 261 251 254 251 251 258 248 249 261 267 260 252 242 241 241 244 241 241 241 231 237 240 247 248 251 255 257 261 268 271 274
256 264 271 275 276 276 275 275 273 270 267 261 250 248 251 252 255 249 246 254 268 262 252 247 242 238 234 232 229 235 226 224 228 237 243 250 254 256 259 263 266 268 272
258 267 277 284 285 287 287 279 272 273 268 260 252 252 252 253 256 260 258 257 253 250 245 242 236 230 225 225 229 227 226 226 235 241 249 254 253 256 262 262 263 264 265
258 271 280 283 291 295 289 281 275 266 262 260 257 253 252 252 253 254 256 253 248 240 236 235 231 229 223 223 227 228 230 229 237 248 251 248 245 247 242 236 229 233 243
270 277 282 285 291 297 296 284 272 265 260 255 253 252 250 251 254 254 246 242 234 230 229 229 235 231 230 233 225 230 235 238 240 239 240 245 226 229 226 225 232 248 259
275 280 282 283 288 293 302 292 270 262 256 253 253 250 248 243 243 236 231 230 230 231 234 241 237 236 235 233 232 227 231 234 229 231 232 225 222 236 252 258 261 263 268
281 284 286 287 286 284 301 304 276 259 251 251 254 249 244 233 230 228 225 226 230 232 231 232 231 227 231 235 232 227 225 226 224 221 226 233 239 242 257 270 272 277 276
283 285 286 287 287 288 297 302 271 247 238 237 237 235 233 224 228 225 225 227 233 234 234 232 230 228 229 230 227 218 215 219 219 229 242 242 236 252 273 261 256 250 268